Location: Milo
(50.5667°N, 112.8833°W)
Time: 00:28:54
(UTC+00:00)

N. Korean satellite - Pass Details

Date: 06 December 2021
Orbit: 446 x 492 km, 97.3° (Epoch: 16 January)

Event Time Altitude Azimuth Distance (km) Brightness Sun altitude
Rises 13:09:26 0° 10° (N) 2,470 10.1 -19.3°
Reaches altitude 10° 13:11:30 10° 7° (N) 1,589 9.1 -19.0°
Maximum altitude 13:14:52 64° 286° (WNW) 504 6.3 -18.4°
Drops below altitude 10° 13:18:11 10° 205° (SSW) 1,572 9.0 -17.9°
Sets 13:20:06 0° 202° (SSW) 2,389 10.0 -17.6°
